Location: Clanezzo
(45.7500°N, 9.6000°E)
Time: 02:37:48
(UTC+00:00)

ESTCUBE 1 - Pass Details

Date: 08 July 2022
Orbit: 646 x 657 km, 97.9° (Epoch: 13 August)

Event Time Altitude Azimuth Distance (km) Brightness Sun altitude
Exits shadow 21:30:19 30° 172° (S) 1,158 ? -16.9°
Maximum altitude 21:32:30 82° 256° (WSW) 661 ? -17.1°
Drops below altitude 10° 21:37:01 10° 345° (NNW) 2,064 ? -17.4°
Sets 21:39:15 0° 347° (NNW) 2,982 ? -17.6°
